Location: Newark
(42.9858°N, 0.6717°E)
Time: 02:33:40
(UTC+00:00)

Transit 2A Rocket - All Passes

Search period start: 22 November 2019 00:00
Search period end: 02 December 2019 00:00
Orbit: 594 x 909 km, 66.7° (Epoch: 21 November)

Date Brightness Start Highest point End Pass type
(mag) Time Alt. Az. Time Alt. Az. Time Alt. Az.
22 Nov - 04:10:18 10° N 04:12:58 16° NE 04:15:41 10° E visible
22 Nov - 05:51:35 10° NW 05:55:57 73° WSW 06:00:34 10° SSE visible
22 Nov - 20:26:59 10° SSW 20:31:44 67° ESE 20:36:11 10° NE night (unlit)
22 Nov - 22:11:37 10° W 22:14:40 17° NW 22:17:37 10° N night (unlit)
23 Nov - 05:09:06 10° NNW 05:13:26 61° ENE 05:18:00 10° SE visible
23 Nov - 06:53:06 10° WNW 06:55:31 14° WSW 06:57:59 10° SW daylight
23 Nov - 19:44:56 10° S 19:49:18 36° ESE 19:53:25 10° NE night (unlit)
23 Nov - 21:27:54 10° WSW 21:31:52 27° NW 21:35:40 10° N night (unlit)
24 Nov - 04:26:48 10° NNW 04:30:49 34° NE 04:35:00 10° ESE visible
24 Nov - 06:09:31 10° NW 06:13:13 26° WSW 06:17:05 10° SSW visible
24 Nov - 19:03:29 10° SSE 19:06:57 20° ESE 19:10:16 10° ENE night (unlit)
24 Nov - 20:44:41 10° SW 20:49:12 46° NW 20:53:28 10° NNE night (unlit)
25 Nov - 03:44:43 10° N 03:48:06 21° NE 03:51:33 10° E visible
25 Nov - 05:26:34 10° NW 05:30:49 48° WSW 05:35:19 10° S visible
25 Nov - 18:23:36 10° ESE 18:24:41 11° ESE 18:25:46 10° E visible
25 Nov - 20:01:53 10° SSW 20:06:38 82° WNW 20:11:05 10° NNE visible
25 Nov - 21:47:47 10° WNW 21:49:50 13° NW 21:51:50 10° NNW night (unlit)
26 Nov - 03:03:01 10° N 03:05:14 13° NE 03:07:28 10° ENE visible
26 Nov - 04:43:57 10° NNW 04:48:21 90° WNW 04:53:01 10° SSE visible
26 Nov - 19:19:31 10° SSW 19:24:09 54° ESE 19:28:30 10° NE visible
26 Nov - 21:03:34 10° W 21:06:57 20° NW 21:10:13 10° N night (unlit)
27 Nov - 04:01:31 10° NNW 04:05:48 50° NE 04:10:18 10° SE visible
27 Nov - 05:44:58 10° WNW 05:48:00 18° WSW 05:51:08 10° SSW visible
27 Nov - 18:37:39 10° S 18:41:45 29° ESE 18:45:37 10° NE visible
27 Nov - 20:20:02 10° WSW 20:24:12 32° NW 20:28:11 10° NNE visible
28 Nov - 03:19:17 10° NNW 03:23:09 29° NE 03:27:09 10° ESE visible
28 Nov - 05:01:41 10° NW 05:05:39 32° WSW 05:09:50 10° S visible
28 Nov - 17:56:31 10° SSE 17:59:25 16° ESE 18:02:14 10° ENE visible
28 Nov - 19:36:58 10° SW 19:41:34 56° NW 19:45:55 10° NNE visible
29 Nov - 02:37:18 10° N 02:40:22 18° NE 02:43:31 10° E visible
29 Nov - 04:18:53 10° NW 04:23:14 60° WSW 04:27:52 10° SSE visible
29 Nov - 18:54:19 10° SSW 18:59:01 81° ESE 19:03:27 10° NNE visible
29 Nov - 20:39:30 10° WNW 20:42:05 15° NW 20:44:36 10° N visible
30 Nov - 01:55:54 10° NNE 01:57:29 12° NE 01:59:04 10° ENE night (unlit)
30 Nov - 03:36:20 10° NNW 03:40:45 74° ENE 03:45:25 10° SE visible
30 Nov - 05:21:00 10° W 05:22:44 12° WSW 05:24:30 10° SW visible
30 Nov - 18:12:07 10° S 18:16:34 43° ESE 18:20:47 10° NE visible
30 Nov - 19:55:35 10° W 19:59:15 23° NW 20:02:47 10° N visible
01 Dec - 02:53:58 10° NNW 02:58:09 41° NE 03:02:33 10° SE night (unlit)
01 Dec - 04:36:59 10° WNW 04:40:27 22° WSW 04:44:06 10° SSW visible
01 Dec - 17:30:27 10° SSE 17:34:12 24° ESE 17:37:47 10° ENE visible
01 Dec - 19:12:13 10° WSW 19:16:32 38° NW 19:20:39 10° NNE visible
